Flag for United Kingdom Weather past 2 weeks in Chesterfield, England, United Kingdom

Now
62 °F

Mild.


Feels Like: 62 °F
Forecast: 55 / 66 °F
Wind: 10 mph from Southeast

Location: Nottingham Weather Centre

Current Time: Aug 3, 2015 at 4:35:34 AM

Latest Report: Aug 3, 2015 at 3:00 AM


Visibility: 11 mi

Pressure: 29.78 "Hg

Humidity: 60%

Dew point: 48 °F

Location of ChesterfieldLocation

Historic Weather in Chesterfield — Graph

°F

Chesterfield temperature yesterday

Maximum temperature yesterday: 74 °F (at 6:00 PM)
Minimum temperature yesterday: 51 °F (at 5:00 AM)
Average temperature yesterday: 63 °F

Past Weeks' High & Low Weather Summary

 TemperatureHumidityPressure
High74 °F (Aug 2, 6:00 PM)100% (Jul 26, 8:00 PM)30.16 "Hg (Jul 26, 8:00 PM)
Low44 °F (Jul 31, 6:00 AM)38% (Jul 31, 5:00 PM)29.32 "Hg (Jul 27, 1:00 AM)
Average58 °F75%29.85 "Hg
* Reported Jul 19 3:00 AM — Aug 3 3:00 AM, Chesterfield, Weather by CustomWeather, © 2015

Note: Actual official high and low records may vary slightly from our data, if they occured in-between our weather recording intervals... More about our weather records

Advertising

Chesterfield weather history for previous 24 hours

 ConditionsComfort  
Time TempWeatherWind HumidityBarometerVisibility
3:00 AM
Mon, Aug 3
62 °FMild.10 mph60%29.78 "Hg11 mi
2:00 AM63 °FMild.12 mph58%29.80 "Hg12 mi
1:00 AM63 °FMild.10 mph63%29.83 "Hg14 mi
12:00 AM64 °FMild.8 mph61%29.86 "Hg7 mi
11:00 PM
Sun, Aug 2
66 °FMild.7 mph52%29.86 "Hg9 mi
9:00 PM69 °FMild.6 mph48%29.90 "Hg11 mi
8:00 PM71 °FMild.9 mph44%29.89 "Hg31 mi
7:00 PM72 °FMild.9 mph44%29.90 "Hg31 mi
6:00 PM74 °FMild.9 mph45%29.91 "Hg7 mi
5:00 PM71 °FMild.9 mph47%29.94 "Hg19 mi
4:00 PM72 °FMild.8 mph46%29.96 "Hg28 mi
3:00 PM70 °FMild.7 mph50%29.98 "Hg12 mi
2:00 PM70 °FMild.8 mph50%30.01 "Hg8 mi
1:00 PM70 °FMild.8 mph54%30.03 "Hg17 mi
12:00 PM67 °FMild.8 mph66%30.03 "Hg18 mi
11:00 AM63 °FMild.7 mph80%30.05 "Hg28 mi
10:00 AM58 °FCool.3 mph88%30.06 "Hg8 mi
9:00 AM58 °FCool.3 mph91%30.06 "Hg7 mi
8:00 AM54 °FFog.3 mph97%30.05 "Hg10 mi
7:00 AM53 °FCool.2 mph97%30.06 "Hg15 mi
6:00 AM51 °FCool.2 mph96%30.05 "Hg6 mi
5:00 AM51 °FSmoke.1 mph93%30.05 "Hg16 mi
Weather by CustomWeather, © 2015

See weather overviewHow to use our weather pages